星链-5305 (STARLINK-5305 )

导读 | 星芒AI

STARLINK-5305 是 SpaceX Starlink 项目中的一颗低轨通信卫星,属于第二代星链卫星群。该卫星旨在为全球提供高速、低延迟的互联网服务,尤其服务于网络基础设施薄弱的地区。它采用先进推进系统和激光通信技术,提升连接效率与稳定性。作为 Starlink 计划的重要组成部分,STARLINK-5305 有助于扩大卫星互联网覆盖范围,推动全球数字包容性发展。

基本信息
目录编号:
55314
目录名称:
STARLINK-5305
国际标识:
2023-010AX
轨道中心:
EARTH
卫星名称:
星链-5305
卫星全名:
星链-5305 (STARLINK-5305 )
卫星状态:
在轨 (已飞行1067 天)
发射日期:
2023-01-19 UTC
国别 :
美国 (US)
星等 :
--
轨道信息
数据来源 国际轨道数据 AOE轨道数据
星历时间 2025-12-21T04:45:35+0800
14小时前
查看轨道信息
2025-12-19T21:00:00+0800
1天前
查看轨道信息
半长轴 6950.195km 6950.24km
偏心率 0.0002845 0.0000015
轨道倾角 69.998° 69.998°
近地点辐角 270.111° 6.812°
升交点赤经 203.253° 206.590°
平近点角 89.972° 57.291°
近地点 570.08km 572.092km
远地点 574.036km 572.114km
周期 96.107分钟 96.108分钟
每日圈数 14.983295 14.98315
详细信息
固有亮度:
5
最大亮度:
2.5
卫星平台:
Starlink v1.5
覆盖范围:
全球
运营商:
太空探索技术公司
运营商所在国:
美国
制造商(研发单位):
太空探索技术公司
制造商所在国:
美国
使用方式:
暂无
卫星简介
星链(Starlink)计划是由太空探索技术公司(SpaceX)提出的一个巨型低轨卫星互联网星座项目,计划在2019年至2024年间在太空搭建由约1.2万颗卫星组成的“星链”网络,其中1584颗将部署在地球上空550千米处的近地轨道,并从2020年开始工作。该卫星仍在工作。
2D轨道图
3D轨道图
轨道高度分析图
轨道倾角分析图
轨道综合分析图
查看轨道综合分析图